Soldotna, AK

6:39 AM AKST on December 11, 2017 (GMT -0900)
Soldotna

Weather History for PASX - June, 2012

Change the Weather History Date:

Monday, June 25, 2012

  Actual Average Record
Temperature  
Mean Temperature 50 °F -  
Max Temperature 51 °F 59 °F 79 °F (1953)
Min Temperature 48 °F 45 °F 37 °F (1951)
Degree Days  
Heating Degree Days 16    
Moisture  
Dew Point 46 °F    
Average Humidity 90    
Maximum Humidity 93    
Minimum Humidity 82    
Precipitation  
Precipitation 0.00 in - - ()
Sea Level Pressure  
Sea Level Pressure 29.60 in    
Wind  
Wind Speed 2 mph (WNW)    
Max Wind Speed 8 mph    
Max Gust Speed -    
Visibility 8 miles    
Events      
Averages and records for this station are not official NWS values.
T = Trace of Precipitation, MM = Missing Value Source: NWS Daily Summary

Daily Weather History Graph

Daily Weather History Graph

Search for Another Location

Airport or City:

Trip Planner

Search our weather history database for the weather conditions in past years. The results will help you decide how hot, cold, wet, or windy it might be!

Date:

Astronomy

Jun. 25, 2012 Rise Set
Actual Time 4:36 AM AKDT 11:37 PM AKDT
Civil Twilight 2:31 AM AKDT 1:39 AM AKDT
Nautical Twilight Sun does not rise Sun does not rise
Astronomical Twilight Sun does not rise Sun does not rise
Moon 12:59 PM AKDT (6/25) 12:48 AM AKDT (6/25)
Length of Visible Light 23h 08m
Length of Day
19h 01m
Waxing Crescent, 36% of the Moon is Illuminated
Jun 25
Waxing Crescent
Jun 26
First Quarter
Jul 3
Full
Jul 10
Last Quarter
Jul 18
New

Hourly Weather History & Observations

Time (AKDT) Temp. Dew Point Humidity Pressure Visibility Wind Dir Wind Speed Gust Speed Precip Events Conditions
12:16 AM 48.2 °F 46.4 °F 93% 29.66 in 10.0 mi WSW 3.5 mph - N/A   Overcast
12:36 AM 48.2 °F 46.4 °F 93% 29.66 in 10.0 mi Calm Calm - N/A   Overcast
12:56 AM 48.2 °F 46.4 °F 93% 29.66 in 10.0 mi Calm Calm - N/A   Overcast
1:16 AM 48.2 °F 46.4 °F 93% 29.66 in 7.0 mi SSE 3.5 mph - N/A   Overcast
1:36 AM 48.2 °F 46.4 °F 93% 29.66 in 10.0 mi SSE 3.5 mph - N/A   Overcast
1:56 AM 48.2 °F 46.4 °F 93% 29.66 in 10.0 mi Calm Calm - N/A   Overcast
2:16 AM 48.2 °F 46.4 °F 93% 29.66 in 10.0 mi Calm Calm - N/A   Overcast
2:36 AM 48.2 °F 46.4 °F 93% 29.66 in 10.0 mi Calm Calm - N/A   Overcast
2:56 AM 48.2 °F 46.4 °F 93% 29.66 in 10.0 mi Calm Calm - N/A   Overcast
3:16 AM 48.2 °F 46.4 °F 93% 29.66 in 10.0 mi Calm Calm - N/A   Overcast
3:36 AM 48.2 °F 46.4 °F 93% 29.66 in 9.0 mi Calm Calm - N/A   Overcast
3:56 AM 48.2 °F 46.4 °F 93% 29.66 in 10.0 mi East 3.5 mph - N/A   Overcast
4:16 AM 48.2 °F 46.4 °F 93% 29.66 in 10.0 mi Calm Calm - N/A   Overcast
4:36 AM 48.2 °F 46.4 °F 93% 29.66 in 10.0 mi Calm Calm - N/A   Overcast
4:56 AM 48.2 °F 46.4 °F 93% 29.66 in 10.0 mi Calm Calm - N/A   Overcast
5:16 AM 48.2 °F 46.4 °F 93% 29.66 in 10.0 mi Calm Calm - N/A   Overcast
5:36 AM 48.2 °F 46.4 °F 93% 29.66 in 10.0 mi Calm Calm - N/A   Overcast
5:56 AM 48.2 °F 46.4 °F 93% 29.66 in 10.0 mi Calm Calm - N/A   Overcast
6:16 AM 48.2 °F 46.4 °F 93% 29.66 in 10.0 mi Calm Calm - N/A   Overcast
6:36 AM 48.2 °F 46.4 °F 93% 29.65 in 10.0 mi Calm Calm - N/A   Overcast
6:56 AM 48.2 °F 46.4 °F 93% 29.65 in 10.0 mi Calm Calm - N/A   Overcast
7:16 AM 50.0 °F 46.4 °F 87% 29.66 in 10.0 mi Calm Calm - N/A   Overcast
7:36 AM 50.0 °F 46.4 °F 87% 29.66 in 10.0 mi Calm Calm - N/A   Overcast
7:56 AM 50.0 °F 46.4 °F 87% 29.65 in 10.0 mi Calm Calm - N/A   Overcast
8:16 AM 50.0 °F 46.4 °F 87% 29.65 in 6.0 mi Calm Calm - N/A   Overcast
8:36 AM 50.0 °F 46.4 °F 87% 29.65 in 4.0 mi Calm Calm - N/A   Overcast
8:56 AM 50.0 °F 46.4 °F 87% 29.65 in 4.0 mi Calm Calm - N/A   Overcast
9:16 AM 50.0 °F 46.4 °F 87% 29.65 in 3.0 mi Calm Calm - N/A   Overcast
9:36 AM 50.0 °F 46.4 °F 87% 29.64 in 2.5 mi Calm Calm - N/A   Overcast
9:56 AM 50.0 °F 46.4 °F 87% 29.64 in 5.0 mi NW 3.5 mph - N/A   Overcast
10:16 AM 50.0 °F 46.4 °F 87% 29.64 in 8.0 mi NW 4.6 mph - N/A   Overcast
10:36 AM 51.8 °F 46.4 °F 82% 29.64 in 9.0 mi NNW 4.6 mph - N/A   Overcast
10:56 AM 51.8 °F 48.2 °F 88% 29.63 in 8.0 mi NW 4.6 mph - N/A   Overcast
11:16 AM 50.0 °F 46.4 °F 87% 29.62 in 5.0 mi WNW 4.6 mph - N/A   Overcast
11:36 AM 50.0 °F 46.4 °F 87% 29.62 in 3.0 mi WNW 6.9 mph - N/A   Overcast
11:56 AM 50.0 °F 46.4 °F 87% 29.62 in 2.0 mi West 4.6 mph - N/A   Overcast
12:16 PM 50.0 °F 46.4 °F 87% 29.62 in 3.0 mi NW 4.6 mph - N/A   Overcast
12:36 PM 50.0 °F 46.4 °F 87% 29.62 in 2.0 mi NW 3.5 mph - N/A   Overcast
12:56 PM 48.2 °F 46.4 °F 93% 29.61 in 1.2 mi Calm Calm - N/A   Overcast
1:16 PM 50.0 °F 46.4 °F 87% 29.61 in 3.0 mi Calm Calm - N/A   Overcast
1:36 PM 48.2 °F 46.4 °F 93% 29.60 in 5.0 mi NW 3.5 mph - N/A   Overcast
1:56 PM 48.2 °F 46.4 °F 93% 29.60 in 7.0 mi WNW 4.6 mph - N/A   Overcast
2:16 PM 48.2 °F 46.4 °F 93% 29.60 in 8.0 mi WNW 3.5 mph - N/A   Overcast
2:36 PM 50.0 °F 46.4 °F 87% 29.60 in 9.0 mi West 3.5 mph - N/A   Overcast
2:56 PM 50.0 °F 46.4 °F 87% 29.59 in 8.0 mi WNW 5.8 mph - N/A   Overcast
3:16 PM 48.2 °F 46.4 °F 93% 29.59 in 7.0 mi West 4.6 mph - N/A   Overcast
3:36 PM 50.0 °F 46.4 °F 87% 29.58 in 9.0 mi NNW 4.6 mph - N/A   Overcast
3:56 PM 50.0 °F 46.4 °F 87% 29.58 in 8.0 mi NW 4.6 mph - N/A   Overcast
4:16 PM 50.0 °F 46.4 °F 87% 29.57 in 9.0 mi WNW 6.9 mph - N/A   Mostly Cloudy
4:36 PM 50.0 °F 46.4 °F 87% 29.57 in 10.0 mi NW 5.8 mph - N/A   Mostly Cloudy
4:56 PM 50.0 °F 46.4 °F 87% 29.56 in 8.0 mi NW 4.6 mph - N/A   Overcast
5:16 PM 50.0 °F 46.4 °F 87% 29.55 in 10.0 mi WNW 8.1 mph - N/A   Overcast
5:36 PM 50.0 °F 46.4 °F 87% 29.55 in 8.0 mi WNW 8.1 mph - N/A   Overcast
5:56 PM 50.0 °F 46.4 °F 87% 29.55 in 8.0 mi NW 5.8 mph - N/A   Overcast
6:16 PM 50.0 °F 46.4 °F 87% 29.55 in 8.0 mi WNW 5.8 mph - N/A   Overcast
6:36 PM 50.0 °F 46.4 °F 87% 29.55 in 8.0 mi WNW 4.6 mph - N/A   Overcast
6:56 PM 48.2 °F 46.4 °F 93% 29.54 in 9.0 mi WNW 6.9 mph - N/A   Mostly Cloudy
7:16 PM 48.2 °F 46.4 °F 93% 29.54 in 9.0 mi WNW 5.8 mph - N/A   Mostly Cloudy
7:36 PM 48.2 °F 46.4 °F 93% 29.54 in 9.0 mi West 8.1 mph - N/A   Overcast
7:56 PM 48.2 °F 46.4 °F 93% 29.53 in 10.0 mi WNW 5.8 mph - N/A   Overcast
8:36 PM 48.2 °F 46.4 °F 93% 29.52 in 10.0 mi NW 5.8 mph - N/A   Overcast
8:56 PM 48.2 °F 46.4 °F 93% 29.52 in 8.0 mi WNW 4.6 mph - N/A   Overcast
9:16 PM 48.2 °F 46.4 °F 93% 29.52 in 8.0 mi West 6.9 mph - N/A   Overcast
9:36 PM 48.2 °F 46.4 °F 93% 29.52 in 9.0 mi West 6.9 mph - N/A   Overcast
9:56 PM 48.2 °F 46.4 °F 93% 29.52 in 10.0 mi WNW 5.8 mph - N/A   Overcast
10:16 PM 48.2 °F 46.4 °F 93% 29.51 in 9.0 mi WNW 4.6 mph - N/A   Overcast
10:36 PM 48.2 °F 46.4 °F 93% 29.51 in 9.0 mi West 6.9 mph - N/A   Overcast
10:56 PM 48.2 °F 46.4 °F 93% 29.51 in 10.0 mi West 6.9 mph - N/A   Overcast
11:16 PM 48.2 °F 46.4 °F 93% 29.51 in 8.0 mi West 5.8 mph - N/A   Overcast
11:36 PM 48.2 °F 46.4 °F 93% 29.51 in 8.0 mi West 4.6 mph - N/A   Overcast
11:56 PM 48.2 °F 44.6 °F 87% 29.51 in 10.0 mi West 6.9 mph - N/A   Overcast